| time (UTC) | temp C | wind direction | speed KPH | gust KPH | rain 1hr cm | rain 24hr cm | rain mn cm | humidity % | barometer mb |
| 20260507015053 | 15 | 113 | 3.2 | 3.2 | 0.00 | 0.00 | 0.00 | 77 | |
| 20260507014549 | 15 | 144 | 0.0 | 1.6 | 0.00 | 0.00 | 0.00 | 76 | |
| 20260507014044 | 15 | 167 | 1.6 | 1.6 | 0.00 | 0.00 | 0.00 | 76 | |
| 20260507013541 | 15 | 161 | 0.0 | 3.2 | 0.00 | 0.00 | 0.00 | 76 | |
| 20260507013039 | 16 | 167 | 0.0 | 1.6 | 0.00 | 0.00 | 0.00 | 75 | |
| 20260507012536 | 16 | 207 | 0.0 | 1.6 | 0.00 | 0.00 | 0.00 | 75 | |
| 20260507012027 | 16 | 155 | 0.0 | 1.6 | 0.00 | 0.00 | 0.00 | 75 | |
| 20260507011524 | 16 | 39 | 3.2 | 4.8 | 0.00 | 0.00 | 0.00 | 75 | |
| 20260507011020 | 15 | 20 | 4.8 | 8.0 | 0.00 | 0.00 | 0.00 | 74 | |
| 20260507010514 | 16 | 117 | 0.0 | 11.3 | 0.00 | 0.00 | 0.00 | 74 | |
| 20260507010006 | 16 | 116 | 0.0 | 3.2 | 0.00 | 0.00 | 0.00 | 72 | |
| 20260507005503 | 16 | 94 | 0.0 | 4.8 | 0.00 | 0.00 | 0.00 | 73 | |
| 20260507004959 | 16 | 70 | 4.8 | 4.8 | 0.00 | 0.00 | 0.00 | 72 | |
| 20260507004455 | 16 | 45 | 3.2 | 8.0 | 0.00 | 0.00 | 0.00 | 71 | |
| 20260507003948 | 16 | 105 | 3.2 | 3.2 | 0.00 | 0.00 | 0.00 | 71 | |
| 20260507003443 | 17 | 182 | 0.0 | 1.6 | 0.00 | 0.00 | 0.00 | 71 | |
| 20260507002938 | 16 | 98 | 1.6 | 4.8 | 0.00 | 0.00 | 0.00 | 71 | |
| 20260507002434 | 17 | 154 | 0.0 | 1.6 | 0.00 | 0.00 | 0.00 | 69 | |
| 20260507001931 | 17 | 194 | 0.0 | 1.6 | 0.00 | 0.00 | 0.00 | 68 | |
| 20260507001427 | 17 | 122 | 0.0 | 1.6 | 0.00 | 0.00 | 0.00 | 68 | |
| 20260507000925 | 17 | 42 | 1.6 | 3.2 | 0.00 | 0.00 | 0.00 | 69 | |
| 20260507000420 | 17 | 131 | 1.6 | 4.8 | 0.00 | 0.00 | 0.00 | 70 | |
| 20260506235911 | 17 | 57 | 1.6 | 3.2 | 0.00 | 0.00 | 0.00 | 69 | |
| 20260506235409 | 17 | 116 | 0.0 | 8.0 | 0.00 | 0.00 | 0.00 | 70 | |
| 20260506234904 | 18 | 6 | 1.6 | 4.8 | 0.00 | 0.00 | 0.00 | 69 | |
| 20260506234403 | 18 | 48 | 1.6 | 8.0 | 0.00 | 0.00 | 0.00 | 68 | |
| 20260506233900 | 17 | 69 | 1.6 | 1.6 | 0.00 | 0.00 | 0.00 | 69 | |
| 20260506233355 | 16 | 176 | 0.0 | 1.6 | 0.00 | 0.00 | 0.00 | 71 | |
| 20260506232852 | 16 | 42 | 1.6 | 3.2 | 0.00 | 0.00 | 0.00 | 71 | |
| 20260506232348 | 17 | 205 | 1.6 | 3.2 | 0.00 | 0.00 | 0.00 | 71 | |
| 20260506231845 | 17 | 109 | 1.6 | 4.8 | 0.00 | 0.00 | 0.00 | 69 | |
| 20260506231343 | 17 | 46 | 1.6 | 4.8 | 0.00 | 0.00 | 0.00 | 70 | |
| 20260506230840 | 17 | 43 | 3.2 | 8.0 | 0.00 | 0.00 | 0.00 | 68 | |
| 20260506230336 | 17 | 162 | 0.0 | 3.2 | 0.00 | 0.00 | 0.00 | 69 | |
| 20260506225832 | 17 | 157 | 1.6 | 3.2 | 0.00 | 0.00 | 0.00 | 70 | |
| 20260506225330 | 17 | 128 | 0.0 | 3.2 | 0.00 | 0.00 | 0.00 | 68 | |
| 20260506224826 | 17 | 127 | 1.6 | 3.2 | 0.00 | 0.00 | 0.00 | 70 | |
| 20260506224323 | 17 | 23 | 3.2 | 4.8 | 0.00 | 0.00 | 0.00 | 69 | |
| 20260506223820 | 17 | 144 | 1.6 | 8.0 | 0.00 | 0.00 | 0.00 | 70 | |
| 20260506223315 | 16 | 25 | 3.2 | 9.7 | 0.00 | 0.00 | 0.00 | 71 | |
| 20260506222813 | 16 | 44 | 4.8 | 11.3 | 0.00 | 0.00 | 0.00 | 71 | |
| 20260506222308 | 16 | 58 | 1.6 | 12.9 | 0.00 | 0.00 | 0.00 | 71 | |
| 20260506221806 | 16 | 121 | 4.8 | 8.0 | 0.00 | 0.00 | 0.00 | 71 | |
| 20260506221303 | 17 | 4 | 4.8 | 4.8 | 0.00 | 0.00 | 0.00 | 69 | |
| 20260506220801 | 16 | 46 | 4.8 | 8.0 | 0.00 | 0.00 | 0.00 | 72 | |
| 20260506220255 | 17 | 270 | 0.0 | 3.2 | 0.00 | 0.00 | 0.00 | 68 | |
| 20260506215752 | 17 | 175 | 3.2 | 4.8 | 0.00 | 0.00 | 0.00 | 69 | |
| 20260506215248 | 17 | 177 | 1.6 | 4.8 | 0.00 | 0.00 | 0.00 | 69 | |
| 20260506214744 | 16 | 62 | 0.0 | 4.8 | 0.00 | 0.00 | 0.00 | 70 | |
| 20260506214242 | 16 | 168 | 1.6 | 1.6 | 0.00 | 0.00 | 0.00 | 71 | |
| 20260506213741 | 16 | 32 | 3.2 | 3.2 | 0.00 | 0.00 | 0.00 | 70 | |
| 20260506213237 | 17 | 35 | 3.2 | 4.8 | 0.00 | 0.00 | 0.00 | 68 | |
| 20260506212735 | 17 | 27 | 1.6 | 8.0 | 0.00 | 0.00 | 0.00 | 69 | |
| 20260506212230 | 17 | 17 | 4.8 | 9.7 | 0.00 | 0.00 | 0.00 | 68 | |
| 20260506211725 | 17 | 346 | 4.8 | 8.0 | 0.00 | 0.00 | 0.00 | 69 | |
| 20260506211222 | 18 | 56 | 1.6 | 4.8 | 0.00 | 0.00 | 0.00 | 64 | |
| 20260506210719 | 18 | 16 | 3.2 | 8.0 | 0.00 | 0.00 | 0.00 | 68 | |
| 20260506210216 | 17 | 167 | 1.6 | 3.2 | 0.00 | 0.00 | 0.00 | 68 | |
| 20260506205713 | 17 | 151 | 0.0 | 4.8 | 0.00 | 0.00 | 0.00 | 68 | |
| 20260506205208 | 18 | 136 | 0.0 | 3.2 | 0.00 | 0.00 | 0.00 | 66 | |
| 20260506204706 | 18 | 38 | 3.2 | 4.8 | 0.00 | 0.00 | 0.00 | 66 | |
| 20260506204203 | 18 | 167 | 0.0 | 9.7 | 0.00 | 0.00 | 0.00 | 66 | |
| 20260506203701 | 17 | 150 | 0.0 | 3.2 | 0.00 | 0.00 | 0.00 | 66 | |
| 20260506203157 | 18 | 32 | 4.8 | 9.7 | 0.00 | 0.00 | 0.00 | 66 | |
| 20260506202655 | 18 | 130 | 6.4 | 8.0 | 0.00 | 0.00 | 0.00 | 66 | |
| 20260506202150 | 17 | 77 | 1.6 | 1.6 | 0.00 | 0.00 | 0.00 | 66 | |
| 20260506201648 | 17 | 156 | 1.6 | 8.0 | 0.00 | 0.00 | 0.00 | 67 | |
| 20260506201144 | 16 | 138 | 1.6 | 8.0 | 0.00 | 0.00 | 0.00 | 68 | |
| 20260506200641 | 17 | 150 | 1.6 | 4.8 | 0.00 | 0.00 | 0.00 | 68 | |
| 20260506200138 | 17 | 127 | 1.6 | 4.8 | 0.00 | 0.00 | 0.00 | 66 | |
| 20260506195634 | 17 | 181 | 3.2 | 4.8 | 0.00 | 0.00 | 0.00 | 70 | |
| 20260506195130 | 18 | 138 | 8.0 | 11.3 | 0.00 | 0.00 | 0.00 | 67 | |
| 20260506194629 | 18 | 152 | 3.2 | 8.0 | 0.00 | 0.00 | 0.00 | 67 | |
| 20260506194124 | 17 | 159 | 1.6 | 3.2 | 0.00 | 0.00 | 0.00 | 69 | |
| 20260506193622 | 17 | 153 | 1.6 | 4.8 | 0.00 | 0.00 | 0.00 | 70 | |
| 20260506193119 | 17 | 65 | 4.8 | 11.3 | 0.00 | 0.00 | 0.00 | 68 | |
| 20260506192616 | 17 | 18 | 3.2 | 4.8 | 0.00 | 0.00 | 0.00 | 69 | |
| 20260506192112 | 16 | 51 | 4.8 | 8.0 | 0.00 | 0.00 | 0.00 | 71 | |
| 20260506191609 | 16 | 195 | 1.6 | 9.7 | 0.00 | 0.00 | 0.00 | 73 | |
| 20260506191104 | 16 | 32 | 4.8 | 9.7 | 0.00 | 0.00 | 0.00 | 72 | |
| 20260506190602 | 16 | 104 | 1.6 | 8.0 | 0.00 | 0.00 | 0.00 | 74 | |
| 20260506190059 | 16 | 124 | 1.6 | 1.6 | 0.00 | 0.00 | 0.00 | 72 | |
| 20260506185556 | 17 | 157 | 0.0 | 3.2 | 0.00 | 0.00 | 0.00 | 71 | |
| 20260506185053 | 16 | 43 | 3.2 | 8.0 | 0.00 | 0.00 | 0.00 | 71 | |
| 20260506184550 | 16 | 174 | 1.6 | 4.8 | 0.00 | 0.00 | 0.00 | 71 | |
| 20260506184047 | 16 | 351 | 3.2 | 8.0 | 0.00 | 0.00 | 0.00 | 71 | |
| 20260506183543 | 16 | 23 | 4.8 | 11.3 | 0.00 | 0.00 | 0.00 | 73 | |
| 20260506183040 | 18 | 67 | 1.6 | 3.2 | 0.00 | 0.00 | 0.00 | 66 | |
| 20260506182537 | 17 | 172 | 0.0 | 3.2 | 0.00 | 0.00 | 0.00 | 67 | |
| 20260506182034 | 18 | 150 | 4.8 | 9.7 | 0.00 | 0.00 | 0.00 | 67 | |
| 20260506181532 | 17 | 90 | 3.2 | 4.8 | 0.00 | 0.00 | 0.00 | 67 | |
| 20260506181029 | 18 | 131 | 0.0 | 8.0 | 0.00 | 0.00 | 0.00 | 67 | |
| 20260506180525 | 18 | 117 | 0.0 | 3.2 | 0.00 | 0.00 | 0.00 | 66 | |
| 20260506180022 | 18 | 163 | 0.0 | 1.6 | 0.00 | 0.00 | 0.00 | 65 | |
| 20260506175519 | 17 | 52 | 0.0 | 1.6 | 0.00 | 0.00 | 0.00 | 67 | |
| 20260506175015 | 17 | 156 | 0.0 | 1.6 | 0.00 | 0.00 | 0.00 | 68 | |
| 20260506174514 | 16 | 18 | 1.6 | 3.2 | 0.00 | 0.00 | 0.00 | 71 | |
| 20260506174009 | 17 | 285 | 3.2 | 4.8 | 0.00 | 0.00 | 0.00 | 70 | |
| 20260506173507 | 17 | 153 | 3.2 | 3.2 | 0.00 | 0.00 | 0.00 | 69 | |
| 20260506173004 | 16 | 176 | 1.6 | 4.8 | 0.00 | 0.00 | 0.00 | 71 | |
| 20260506172501 | 16 | 147 | 3.2 | 4.8 | 0.00 | 0.00 | 0.00 | 72 | |
| 20260506171957 | 16 | 164 | 0.0 | 1.6 | 0.00 | 0.00 | 0.00 | 70 | |
| 20260506171455 | 15 | 174 | 3.2 | 4.8 | 0.00 | 0.00 | 0.00 | 74 | |
| 20260506170953 | 15 | 242 | 1.6 | 1.6 | 0.00 | 0.00 | 0.00 | 74 | |
| 20260506170449 | 16 | 167 | 1.6 | 4.8 | 0.00 | 0.00 | 0.00 | 74 | |
| 20260506165947 | 16 | 168 | 0.0 | 1.6 | 0.00 | 0.00 | 0.00 | 72 | |
| 20260506165446 | 15 | 163 | 0.0 | 1.6 | 0.00 | 0.00 | 0.00 | 74 | |
| 20260506164941 | 15 | 169 | 0.0 | 3.2 | 0.00 | 0.00 | 0.00 | 76 | |
| 20260506164438 | 15 | 213 | 4.8 | 4.8 | 0.00 | 0.00 | 0.00 | 73 | |
| 20260506163936 | 15 | 172 | 3.2 | 8.0 | 0.00 | 0.00 | 0.00 | 76 | |
| 20260506163431 | 15 | 188 | 0.0 | 3.2 | 0.00 | 0.00 | 0.00 | 74 | |
| 20260506162926 | 15 | 181 | 1.6 | 3.2 | 0.00 | 0.00 | 0.00 | 75 | |
| 20260506162424 | 15 | 150 | 3.2 | 8.0 | 0.00 | 0.00 | 0.00 | 77 | |
| 20260506161921 | 14 | 106 | 0.0 | 3.2 | 0.00 | 0.00 | 0.00 | 77 | |
| 20260506161419 | 14 | 156 | 1.6 | 3.2 | 0.00 | 0.00 | 0.00 | 77 | |
| 20260506160911 | 13 | 170 | 1.6 | 4.8 | 0.00 | 0.00 | 0.00 | 79 | |
| 20260506160408 | 13 | 151 | 1.6 | 4.8 | 0.00 | 0.00 | 0.00 | 79 | |
| 20260506155906 | 14 | 189 | 1.6 | 8.0 | 0.00 | 0.00 | 0.00 | 79 | |
| 20260506155402 | 13 | 136 | 1.6 | 3.2 | 0.00 | 0.00 | 0.00 | 79 | |
| 20260506153525 | 13 | 225 | 3.2 | 4.8 | 0.00 | 0.00 | 0.00 | 81 | |
| 20260506153022 | 13 | 159 | 0.0 | 1.6 | 0.00 | 0.00 | 0.00 | 81 | |
| 20260506152519 | 13 | 208 | 1.6 | 4.8 | 0.00 | 0.00 | 0.00 | 81 | |
| 20260506152018 | 13 | 166 | 0.0 | 3.2 | 0.00 | 0.00 | 0.00 | 82 | |
| 20260506151515 | 13 | 164 | 0.0 | 1.6 | 0.00 | 0.00 | 0.00 | 82 | |
| 20260506151012 | 12 | 167 | 1.6 | 8.0 | 0.00 | 0.00 | 0.00 | 83 | |
| 20260506150507 | 12 | 166 | 3.2 | 4.8 | 0.00 | 0.00 | 0.00 | 83 | |
| 20260506150005 | 12 | 205 | 1.6 | 3.2 | 0.00 | 0.00 | 0.00 | 84 | |
| 20260506145501 | 12 | 200 | 1.6 | 3.2 | 0.00 | 0.00 | 0.00 | 85 | |
| 20260506144959 | 12 | 158 | 1.6 | 3.2 | 0.00 | 0.00 | 0.00 | 86 | |
| 20260506144455 | 12 | 183 | 1.6 | 3.2 | 0.00 | 0.00 | 0.00 | 87 | |
| 20260506143953 | 12 | 262 | 1.6 | 3.2 | 0.00 | 0.00 | 0.00 | 87 | |
| 20260506143450 | 11 | 129 | 0.0 | 1.6 | 0.00 | 0.00 | 0.00 | 90 | |
| 20260506142949 | 11 | 179 | 0.0 | 1.6 | 0.00 | 0.00 | 0.00 | 92 | |
| 20260506142446 | 10 | 149 | 0.0 | 3.2 | 0.00 | 0.00 | 0.00 | 94 | |
| 20260506141944 | 10 | 182 | 0.0 | 0.0 | 0.00 | 0.00 | 0.00 | 95 | |
| 20260506141441 | 10 | 168 | 0.0 | 0.0 | 0.00 | 0.00 | 0.00 | 96 | |
| 20260506140940 | 10 | 167 | 0.0 | 0.0 | 0.00 | 0.00 | 0.00 | 96 | |
| 20260506140436 | 10 | 164 | 0.0 | 0.0 | 0.00 | 0.00 | 0.00 | 97 | |
| 20260506135933 | 10 | 161 | 0.0 | 0.0 | 0.00 | 0.00 | 0.00 | 98 | |
| 20260506135431 | 9 | 189 | 0.0 | 0.0 | 0.00 | 0.00 | 0.00 | 98 | |
| 20260506134926 | 10 | 154 | 0.0 | 0.0 | 0.00 | 0.00 | 0.00 | 98 | |
| 20260506134423 | 9 | 167 | 0.0 | 0.0 | 0.00 | 0.00 | 0.00 | 99 | |
| 20260506133920 | 9 | 169 | 0.0 | 0.0 | 0.00 | 0.00 | 0.00 | 99 | |
| 20260506133417 | 9 | 168 | 0.0 | 0.0 | 0.00 | 0.00 | 0.00 | 99 | |
| 20260506132913 | 8 | 143 | 0.0 | 0.0 | 0.00 | 0.00 | 0.00 | 99 | |
| 20260506132411 | 8 | 178 | 0.0 | 0.0 | 0.00 | 0.00 | 0.00 | 99 | |
| 20260506131908 | 8 | 170 | 0.0 | 0.0 | 0.00 | 0.00 | 0.00 | 98 | |
| 20260506131404 | 8 | 190 | 0.0 | 0.0 | 0.00 | 0.00 | 0.00 | 98 | |
| 20260506130901 | 8 | 173 | 0.0 | 0.0 | 0.00 | 0.00 | 0.00 | 98 | |
| 20260506130358 | 8 | 168 | 0.0 | 0.0 | 0.00 | 0.00 | 0.00 | 98 | |
| 20260506125856 | 8 | 186 | 0.0 | 0.0 | 0.00 | 0.00 | 0.00 | 98 | |
| 20260506125354 | 8 | 169 | 0.0 | 0.0 | 0.00 | 0.00 | 0.00 | 97 | |
| 20260506124852 | 8 | 188 | 0.0 | 0.0 | 0.00 | 0.00 | 0.00 | 97 | |
| 20260506124349 | 9 | 178 | 0.0 | 0.0 | 0.00 | 0.00 | 0.00 | 97 | |
| 20260506123846 | 9 | 169 | 0.0 | 0.0 | 0.00 | 0.00 | 0.00 | 97 | |
| 20260506123345 | 9 | 152 | 0.0 | 0.0 | 0.00 | 0.00 | 0.00 | 97 | |
| 20260506122842 | 9 | 169 | 0.0 | 0.0 | 0.00 | 0.00 | 0.00 | 97 | |
| 20260506122338 | 9 | 178 | 0.0 | 0.0 | 0.00 | 0.00 | 0.00 | 97 | |
| 20260506121837 | 10 | 194 | 0.0 | 0.0 | 0.00 | 0.00 | 0.00 | 97 | |
| 20260506121334 | 10 | 170 | 0.0 | 0.0 | 0.00 | 0.00 | 0.00 | 98 | |
| 20260506120831 | 9 | 173 | 0.0 | 0.0 | 0.00 | 0.00 | 0.00 | 98 | |
| 20260506120328 | 9 | 149 | 0.0 | 0.0 | 0.00 | 0.00 | 0.00 | 98 | |
| 20260506115825 | 8 | 165 | 0.0 | 0.0 | 0.00 | 0.00 | 0.00 | 98 | |
| 20260506115324 | 8 | 171 | 0.0 | 0.0 | 0.00 | 0.00 | 0.00 | 97 | |
| 20260506114821 | 8 | 174 | 0.0 | 0.0 | 0.00 | 0.00 | 0.00 | 97 | |
| 20260506114319 | 8 | 172 | 0.0 | 0.0 | 0.00 | 0.00 | 0.00 | 97 | |
| 20260506113817 | 9 | 169 | 0.0 | 0.0 | 0.00 | 0.00 | 0.00 | 97 | |
| 20260506113314 | 9 | 166 | 0.0 | 0.0 | 0.00 | 0.00 | 0.00 | 97 | |
| 20260506112811 | 9 | 169 | 0.0 | 0.0 | 0.00 | 0.00 | 0.00 | 97 | |
| 20260506112308 | 9 | 165 | 0.0 | 0.0 | 0.00 | 0.00 | 0.00 | 97 | |
| 20260506111805 | 9 | 166 | 0.0 | 0.0 | 0.00 | 0.00 | 0.00 | 97 | |
| 20260506111304 | 9 | 159 | 0.0 | 0.0 | 0.00 | 0.00 | 0.00 | 97 | |
| 20260506110801 | 9 | 166 | 0.0 | 0.0 | 0.00 | 0.00 | 0.00 | 97 | |
| 20260506110258 | 9 | 162 | 0.0 | 0.0 | 0.00 | 0.00 | 0.00 | 97 | |
| 20260506105754 | 9 | 169 | 0.0 | 0.0 | 0.00 | 0.00 | 0.00 | 97 | |
| 20260506105251 | 9 | 160 | 0.0 | 0.0 | 0.00 | 0.00 | 0.00 | 97 | |
| 20260506104749 | 9 | 137 | 0.0 | 0.0 | 0.00 | 0.00 | 0.00 | 97 | |
| 20260506104247 | 9 | 189 | 0.0 | 0.0 | 0.00 | 0.00 | 0.00 | 97 | |
| 20260506103744 | 10 | 171 | 0.0 | 0.0 | 0.00 | 0.00 | 0.00 | 97 | |
| 20260506103241 | 10 | 178 | 0.0 | 0.0 | 0.00 | 0.00 | 0.00 | 97 | |
| 20260506102738 | 10 | 170 | 0.0 | 0.0 | 0.00 | 0.00 | 0.00 | 97 | |
| 20260506102236 | 10 | 171 | 0.0 | 0.0 | 0.00 | 0.00 | 0.00 | 97 | |
| 20260506101733 | 10 | 175 | 0.0 | 0.0 | 0.00 | 0.00 | 0.00 | 97 | |
| 20260506101229 | 10 | 170 | 0.0 | 0.0 | 0.00 | 0.00 | 0.00 | 97 | |
| 20260506100727 | 10 | 183 | 0.0 | 0.0 | 0.00 | 0.00 | 0.00 | 96 | |
| 20260506100226 | 10 | 172 | 0.0 | 0.0 | 0.00 | 0.00 | 0.00 | 97 | |
| 20260506095724 | 10 | 172 | 0.0 | 0.0 | 0.00 | 0.00 | 0.00 | 96 | |
| 20260506095220 | 10 | 171 | 0.0 | 0.0 | 0.00 | 0.00 | 0.00 | 96 | |
| 20260506094717 | 10 | 172 | 0.0 | 0.0 | 0.00 | 0.00 | 0.00 | 96 | |
| 20260506094215 | 10 | 172 | 0.0 | 0.0 | 0.00 | 0.00 | 0.00 | 96 | |
| 20260506093714 | 10 | 169 | 0.0 | 0.0 | 0.00 | 0.00 | 0.00 | 96 | |
| 20260506093210 | 10 | 173 | 0.0 | 0.0 | 0.00 | 0.00 | 0.00 | 96 | |
| 20260506092708 | 10 | 174 | 0.0 | 0.0 | 0.00 | 0.00 | 0.00 | 95 | |
| 20260506092205 | 10 | 170 | 0.0 | 0.0 | 0.00 | 0.00 | 0.00 | 95 | |
| 20260506091703 | 10 | 171 | 0.0 | 0.0 | 0.00 | 0.00 | 0.00 | 95 | |
| 20260506091200 | 10 | 170 | 0.0 | 0.0 | 0.00 | 0.00 | 0.00 | 95 | |
| 20260506090658 | 10 | 171 | 0.0 | 0.0 | 0.00 | 0.00 | 0.00 | 95 | |
| 20260506090154 | 10 | 171 | 0.0 | 0.0 | 0.00 | 0.00 | 0.00 | 95 | |
| 20260506085651 | 10 | 169 | 0.0 | 0.0 | 0.00 | 0.00 | 0.00 | 95 | |
| 20260506085147 | 10 | 179 | 0.0 | 0.0 | 0.00 | 0.00 | 0.00 | 95 | |
| 20260506084644 | 10 | 172 | 0.0 | 0.0 | 0.00 | 0.00 | 0.00 | 94 | |
| 20260506084141 | 10 | 172 | 0.0 | 0.0 | 0.00 | 0.00 | 0.00 | 94 | |
| 20260506083638 | 10 | 177 | 0.0 | 0.0 | 0.00 | 0.00 | 0.00 | 94 | |
| 20260506083136 | 10 | 167 | 0.0 | 0.0 | 0.00 | 0.00 | 0.00 | 94 | |
| 20260506082632 | 11 | 177 | 0.0 | 0.0 | 0.00 | 0.00 | 0.00 | 93 | |
| 20260506082128 | 11 | 199 | 0.0 | 0.0 | 0.00 | 0.00 | 0.00 | 92 | |
| 20260506081626 | 11 | 171 | 0.0 | 0.0 | 0.00 | 0.00 | 0.00 | 91 | |
| 20260506081123 | 11 | 175 | 0.0 | 0.0 | 0.00 | 0.00 | 0.00 | 90 | |
| 20260506080621 | 11 | 169 | 0.0 | 0.0 | 0.00 | 0.00 | 0.00 | 90 | |
| 20260506080117 | 11 | 164 | 0.0 | 0.0 | 0.00 | 0.00 | 0.00 | 90 | |
| 20260506073101 | 12 | 152 | 0.0 | 0.0 | 0.00 | 0.00 | 0.00 | 90 | |
| 20260506072558 | 11 | 167 | 0.0 | 0.0 | 0.00 | 0.00 | 0.00 | 91 | |
| 20260506072056 | 11 | 159 | 0.0 | 0.0 | 0.00 | 0.00 | 0.00 | 90 | |
| 20260506071553 | 12 | 168 | 0.0 | 0.0 | 0.00 | 0.00 | 0.00 | 90 | |
| 20260506071051 | 11 | 172 | 0.0 | 0.0 | 0.00 | 0.00 | 0.00 | 90 | |
| 20260506070548 | 11 | 168 | 0.0 | 0.0 | 0.00 | 0.00 | 0.00 | 89 | |
| 20260506062022 | 12 | 177 | 0.0 | 0.0 | 0.00 | 0.00 | 0.00 | 85 | |
| 20260506061517 | 12 | 171 | 0.0 | 0.0 | 0.00 | 0.00 | 0.00 | 85 | |
| 20260506061015 | 12 | 175 | 0.0 | 0.0 | 0.00 | 0.00 | 0.00 | 84 | |
| 20260506060514 | 13 | 177 | 0.0 | 0.0 | 0.00 | 0.00 | 0.00 | 82 | |
| 20260506050942 | 15 | 153 | 0.0 | 0.0 | 0.00 | 0.00 | 0.00 | 72 | |
| 20260506050440 | 15 | 132 | 0.0 | 0.0 | 0.00 | 0.00 | 0.00 | 71 | |
| 20260506044930 | 15 | 134 | 0.0 | 1.6 | 0.00 | 0.00 | 0.00 | 70 | |
| 20260506044429 | 15 | 159 | 1.6 | 3.2 | 0.00 | 0.00 | 0.00 | 69 | |
| 20260506043925 | 15 | 176 | 1.6 | 3.2 | 0.00 | 0.00 | 0.00 | 70 | |
| 20260506043423 | 16 | 137 | 1.6 | 8.0 | 0.00 | 0.00 | 0.00 | 69 | |
| 20260506042920 | 16 | 197 | 3.2 | 4.8 | 0.00 | 0.00 | 0.00 | 69 | |
| 20260506042420 | 16 | 170 | 0.0 | 1.6 | 0.00 | 0.00 | 0.00 | 69 | |
| 20260506041917 | 16 | 162 | 0.0 | 0.0 | 0.00 | 0.00 | 0.00 | 69 | |
| 20260506041415 | 16 | 172 | 1.6 | 8.0 | 0.00 | 0.00 | 0.00 | 69 | |
| 20260506040912 | 16 | 154 | 1.6 | 1.6 | 0.00 | 0.00 | 0.00 | 69 | |
| 20260506040409 | 16 | 155 | 1.6 | 3.2 | 0.00 | 0.00 | 0.00 | 69 | |
| 20260506035905 | 16 | 162 | 0.0 | 1.6 | 0.00 | 0.00 | 0.00 | 69 | |
| 20260506035403 | 16 | 159 | 1.6 | 4.8 | 0.00 | 0.00 | 0.00 | 68 | |
| 20260506034859 | 17 | 169 | 0.0 | 1.6 | 0.00 | 0.00 | 0.00 | 68 | |
| 20260506034357 | 17 | 168 | 0.0 | 3.2 | 0.00 | 0.00 | 0.00 | 68 | |
| 20260506033854 | 17 | 167 | 1.6 | 3.2 | 0.00 | 0.00 | 0.00 | 67 | |
| 20260506033351 | 17 | 99 | 1.6 | 4.8 | 0.00 | 0.00 | 0.00 | 67 | |
| 20260506032848 | 17 | 200 | 3.2 | 3.2 | 0.00 | 0.00 | 0.00 | 66 | |
| 20260506032344 | 18 | 151 | 0.0 | 4.8 | 0.00 | 0.00 | 0.00 | 65 | |
| 20260506031841 | 18 | 166 | 1.6 | 4.8 | 0.00 | 0.00 | 0.00 | 64 | |
| 20260506031339 | 18 | 175 | 1.6 | 8.0 | 0.00 | 0.00 | 0.00 | 64 | |
| 20260506030836 | 18 | 163 | 1.6 | 4.8 | 0.00 | 0.00 | 0.00 | 64 | |
| 20260506030334 | 18 | 177 | 0.0 | 8.0 | 0.00 | 0.00 | 0.00 | 63 | |
| 20260506025830 | 18 | 156 | 1.6 | 11.3 | 0.00 | 0.00 | 0.00 | 63 | |
| 20260506025327 | 19 | 154 | 1.6 | 4.8 | 0.00 | 0.00 | 0.00 | 62 | |
| 20260506024824 | 19 | 119 | 4.8 | 4.8 | 0.00 | 0.00 | 0.00 | 62 | |
| 20260506024321 | 20 | 178 | 4.8 | 11.3 | 0.00 | 0.00 | 0.00 | 62 | |
| 20260506023817 | 20 | 174 | 3.2 | 8.0 | 0.00 | 0.00 | 0.00 | 61 | |
| 20260506023314 | 20 | 190 | 4.8 | 8.0 | 0.00 | 0.00 | 0.00 | 62 | |
| 20260506022810 | 20 | 169 | 1.6 | 8.0 | 0.00 | 0.00 | 0.00 | 62 | |
| 20260506022309 | 20 | 201 | 4.8 | 8.0 | 0.00 | 0.00 | 0.00 | 61 | |
| 20260506021806 | 20 | 161 | 3.2 | 4.8 | 0.00 | 0.00 | 0.00 | 61 | |
| 20260506021303 | 20 | 203 | 6.4 | 8.0 | 0.00 | 0.00 | 0.00 | 60 | |
| 20260506020759 | 20 | 185 | 0.0 | 4.8 | 0.00 | 0.00 | 0.00 | 60 | |
| 20260506020258 | 20 | 144 | 1.6 | 11.3 | 0.00 | 0.00 | 0.00 | 60 | |
| 20260506015755 | 20 | 152 | 3.2 | 9.7 | 0.00 | 0.00 | 0.00 | 59 |